Location: Coupvray
(48.8929°N, 2.7967°E)
Time: 07:39:53
(UTC+00:00)

X-37B - Pass Details

Date: 02 October 2020
Orbit: 382 x 392 km, 45.0° (Epoch: 15 October)

Event Time Altitude Azimuth Distance (km) Brightness Sun altitude
Rises 19:08:05 0° 215° (SW) 2,254 4.7 -17.7°
Reaches altitude 10° 19:10:42 10° 192° (SSW) 1,402 3.4 -18.1°
Enters shadow 19:10:59 11° 188° (S) 1,332 3.2 -18.1°
